Flag for U.S.A. Weather past 2 weeks in Key West, Florida, U.S.A.

Now
82 °F

Clear.


Feels Like: 89 °F
Forecast: 81 / 87 °F
Wind: No wind

Location: Key West International Airport

Current Time: Sep 16, 2014 at 3:49:02 AM

Latest Report: Sep 16, 2014 at 2:53 AM


Visibility: 10 mi

Pressure: 30.08 "Hg

Humidity: 79%

Dew point: 75 °F

Location of Key WestLocation

Historic Weather in Key West — Graph

°F

Key West temperature yesterday

Maximum temperature yesterday: 89 °F (at 1:53 PM)
Minimum temperature yesterday: 82 °F (at 6:53 AM)
Average temperature yesterday: 85 °F

Past Weeks' High & Low Weather Summary

 TemperatureHumidityPressure
High90 °F (Sep 1, 1:53 PM)90% (Sep 12, 11:53 PM)30.14 "Hg (Sep 12, 11:53 PM)
Low76 °F (Sep 9, 4:53 AM)61% (Sep 8, 11:53 AM)29.91 "Hg (Sep 10, 4:53 AM)
Average84 °F73%30.01 "Hg
* Reported Sep 1 2:53 AM — Sep 16 2:53 AM, Key West, Weather by CustomWeather, © 2014

Note: Actual official high and low records may vary slightly from our data, if they occured in-between our weather recording intervals... More about our weather records

Advertising

Key West weather history for previous 24 hours

 ConditionsComfort  
Time TempWeatherWind HumidityBarometerVisibility
2:53 AM
Sep 16
82 °FClear.No wind79%30.08 "Hg10 mi
1:53 AM82 °FClear.3 mph79%30.09 "Hg10 mi
12:53 AM83 °FClear.6 mph77%30.11 "Hg10 mi
11:53 PM
Sep 15
83 °FClear.No wind77%30.11 "Hg10 mi
10:53 PM83 °FClear.7 mph77%30.11 "Hg10 mi
9:53 PM84 °FClear.7 mph72%30.11 "Hg10 mi
8:53 PM84 °FPassing clouds.12 mph74%30.11 "Hg10 mi
7:53 PM85 °FSunny.8 mph70%30.09 "Hg10 mi
6:53 PM86 °FSunny.9 mph70%30.07 "Hg10 mi
5:53 PM87 °FSunny.10 mph67%30.07 "Hg10 mi
4:53 PM88 °FSunny.10 mph65%30.07 "Hg10 mi
3:53 PM88 °FSunny.12 mph67%30.08 "Hg10 mi
2:53 PM89 °FSunny.12 mph65%30.10 "Hg10 mi
1:53 PM89 °FBroken clouds.13 mph68%30.11 "Hg10 mi
12:53 PM88 °FScattered clouds.14 mph67%30.12 "Hg10 mi
11:53 AM88 °FSunny.12 mph65%30.14 "Hg10 mi
11:01 AM88 °FPartly sunny.12 mph70%30.13 "Hg10 mi
9:53 AM86 °FSunny.8 mph72%30.13 "Hg10 mi
8:53 AM84 °FSunny.5 mph80%30.12 "Hg10 mi
7:53 AMN/AClear.5 mphN/A30.12 "Hg10 mi
6:53 AM82 °FClear.5 mph82%30.11 "Hg10 mi
5:53 AM83 °FPassing clouds.10 mph79%30.10 "Hg10 mi
4:53 AM84 °FPassing clouds.10 mph77%30.09 "Hg10 mi
3:53 AM84 °FPassing clouds.13 mph80%30.09 "Hg10 mi
Weather by CustomWeather, © 2014

See weather overviewHow to use our weather pages